| time (UTC) | temp C | wind direction | speed KPH | gust KPH | rain 1hr cm | rain 24hr cm | rain mn cm | humidity % | barometer mb |
| 20260504100204 | 2 | 233 | 0.0 | 0.0 | 0.00 | 0.00 | 0.00 | 85 | 1014.4 |
| 20260504081705 | 2 | 298 | 0.0 | 0.0 | 0.00 | 0.00 | 0.00 | 83 | 1014.6 |
| 20260504081204 | 2 | 298 | 0.0 | 0.0 | 0.00 | 0.00 | 0.00 | 84 | 1014.6 |
| 20260504080705 | 2 | 298 | 0.0 | 0.0 | 0.00 | 0.00 | 0.00 | 84 | 1014.7 |
| 20260504080205 | 2 | 298 | 0.0 | 0.0 | 0.00 | 0.00 | 0.00 | 83 | 1014.6 |
| 20260504070205 | 3 | 298 | 0.0 | 0.0 | 0.00 | 0.00 | 0.00 | 81 | 1014.7 |
| 20260504050705 | 4 | 298 | 0.0 | 0.0 | 0.00 | 0.00 | 0.00 | 76 | 1014.8 |
| 20260504050205 | 4 | 298 | 0.0 | 0.0 | 0.00 | 0.00 | 0.00 | 76 | 1014.8 |
| 20260504045705 | 4 | 298 | 0.0 | 0.0 | 0.00 | 0.00 | 0.00 | 76 | 1014.8 |
| 20260504045204 | 4 | 298 | 0.0 | 0.0 | 0.00 | 0.00 | 0.00 | 77 | 1014.8 |
| 20260504044705 | 4 | 298 | 0.0 | 0.0 | 0.00 | 0.00 | 0.00 | 76 | 1014.8 |
| 20260504044205 | 4 | 298 | 0.0 | 0.0 | 0.00 | 0.00 | 0.00 | 75 | 1014.8 |
| 20260504043705 | 5 | 298 | 0.0 | 0.0 | 0.00 | 0.00 | 0.00 | 76 | 1014.8 |
| 20260504043205 | 5 | 298 | 0.0 | 0.0 | 0.00 | 0.00 | 0.00 | 74 | 1014.8 |
| 20260504042705 | 5 | 298 | 0.0 | 0.0 | 0.00 | 0.00 | 0.00 | 73 | 1014.8 |
| 20260504042205 | 5 | 298 | 0.0 | 0.0 | 0.00 | 0.00 | 0.00 | 69 | 1014.8 |
| 20260504041705 | 5 | 298 | 0.0 | 0.0 | 0.00 | 0.00 | 0.00 | 70 | 1014.7 |
| 20260504041205 | 5 | 298 | 0.0 | 0.0 | 0.00 | 0.00 | 0.00 | 70 | 1014.8 |
| 20260504040705 | 5 | 298 | 0.0 | 0.0 | 0.00 | 0.00 | 0.00 | 70 | 1014.8 |
| 20260504040205 | 5 | 298 | 0.0 | 0.0 | 0.00 | 0.00 | 0.00 | 70 | 1014.9 |
| 20260504035705 | 5 | 298 | 0.0 | 0.0 | 0.00 | 0.00 | 0.00 | 72 | 1014.9 |
| 20260504035204 | 5 | 298 | 0.0 | 0.0 | 0.00 | 0.00 | 0.00 | 73 | 1014.8 |
| 20260504034704 | 5 | 298 | 0.0 | 3.2 | 0.00 | 0.00 | 0.00 | 73 | 1014.8 |
| 20260504034204 | 5 | 298 | 1.6 | 1.6 | 0.00 | 0.00 | 0.00 | 72 | 1014.7 |
| 20260504033704 | 6 | 298 | 0.0 | 0.0 | 0.00 | 0.00 | 0.00 | 72 | 1014.6 |
| 20260504033204 | 6 | 298 | 0.0 | 3.2 | 0.00 | 0.00 | 0.00 | 70 | 1014.5 |
| 20260504032204 | 6 | 298 | 0.0 | 1.6 | 0.00 | 0.00 | 0.00 | 69 | 1014.5 |
| 20260504031705 | 7 | 298 | 0.0 | 0.0 | 0.00 | 0.00 | 0.00 | 67 | 1014.6 |
| 20260504031205 | 7 | 298 | 0.0 | 3.2 | 0.00 | 0.00 | 0.00 | 62 | 1014.6 |
| 20260504030705 | 7 | 298 | 0.0 | 1.6 | 0.00 | 0.00 | 0.00 | 63 | 1014.4 |
| 20260504030205 | 7 | 298 | 1.6 | 1.6 | 0.00 | 0.00 | 0.00 | 62 | 1014.4 |
| 20260504025205 | 7 | 298 | 1.6 | 1.6 | 0.00 | 0.00 | 0.00 | 65 | 1014.4 |
| 20260504024205 | 7 | 298 | 0.0 | 3.2 | 0.00 | 0.00 | 0.00 | 66 | 1014.5 |
| 20260504023704 | 6 | 298 | 0.0 | 1.6 | 0.00 | 0.00 | 0.00 | 67 | 1014.5 |
| 20260504022704 | 8 | 298 | 0.0 | 3.2 | 0.00 | 0.00 | 0.00 | 60 | 1014.4 |
| 20260504022204 | 8 | 298 | 1.6 | 1.6 | 0.00 | 0.00 | 0.00 | 62 | 1014.3 |
| 20260504021704 | 7 | 298 | 1.6 | 1.6 | 0.00 | 0.00 | 0.00 | 61 | 1014.3 |
| 20260504021204 | 7 | 298 | 0.0 | 0.0 | 0.00 | 0.00 | 0.00 | 64 | 1014.3 |
| 20260504020704 | 7 | 298 | 0.0 | 0.0 | 0.00 | 0.00 | 0.00 | 63 | 1014.3 |
| 20260504015704 | 7 | 298 | 0.0 | 0.0 | 0.00 | 0.00 | 0.00 | 67 | 1014.3 |
| 20260504015205 | 8 | 298 | 0.0 | 0.0 | 0.00 | 0.00 | 0.00 | 64 | 1014.2 |
| 20260504014704 | 8 | 298 | 0.0 | 0.0 | 0.00 | 0.00 | 0.00 | 63 | 1014.2 |
| 20260504014204 | 8 | 298 | 0.0 | 3.2 | 0.00 | 0.00 | 0.00 | 61 | 1014.2 |
| 20260504013704 | 8 | 298 | 1.6 | 1.6 | 0.00 | 0.00 | 0.00 | 63 | 1014.2 |
| 20260504013205 | 8 | 298 | 1.6 | 1.6 | 0.00 | 0.00 | 0.00 | 64 | 1014.2 |
| 20260504012705 | 8 | 298 | 0.0 | 1.6 | 0.00 | 0.00 | 0.00 | 64 | 1014.2 |
| 20260504012205 | 8 | 298 | 0.0 | 0.0 | 0.00 | 0.00 | 0.00 | 65 | 1014.1 |
| 20260504011704 | 8 | 298 | 0.0 | 1.6 | 0.00 | 0.00 | 0.00 | 63 | 1014.1 |
| 20260504011204 | 9 | 298 | 0.0 | 3.2 | 0.00 | 0.00 | 0.00 | 62 | 1014.0 |
| 20260504010704 | 9 | 298 | 0.0 | 3.2 | 0.00 | 0.00 | 0.00 | 61 | 1013.9 |
| 20260504010204 | 9 | 298 | 1.6 | 1.6 | 0.00 | 0.00 | 0.00 | 59 | 1013.9 |
| 20260504005704 | 9 | 298 | 0.0 | 1.6 | 0.00 | 0.00 | 0.00 | 60 | 1013.8 |
| 20260504005204 | 9 | 298 | 0.0 | 3.2 | 0.00 | 0.00 | 0.00 | 57 | 1013.8 |
| 20260504004704 | 9 | 298 | 0.0 | 1.6 | 0.00 | 0.00 | 0.00 | 61 | 1013.8 |
| 20260504004204 | 9 | 298 | 0.0 | 1.6 | 0.00 | 0.00 | 0.00 | 59 | 1013.8 |
| 20260504003705 | 10 | 298 | 0.0 | 3.2 | 0.00 | 0.00 | 0.00 | 56 | 1013.8 |
| 20260504003204 | 10 | 298 | 0.0 | 1.6 | 0.00 | 0.00 | 0.00 | 57 | 1013.7 |
| 20260504002705 | 10 | 298 | 0.0 | 3.2 | 0.00 | 0.00 | 0.00 | 57 | 1013.7 |
| 20260504002205 | 10 | 298 | 1.6 | 3.2 | 0.00 | 0.00 | 0.00 | 54 | 1013.6 |
| 20260504001206 | 10 | 298 | 0.0 | 0.0 | 0.00 | 0.00 | 0.00 | 54 | 1013.6 |
| 20260504000705 | 10 | 298 | 0.0 | 0.0 | 0.00 | 0.00 | 0.00 | 53 | 1013.5 |
| 20260504000205 | 11 | 298 | 0.0 | 0.0 | 0.00 | 0.00 | 0.00 | 51 | 1013.5 |
| 20260503235705 | 11 | 298 | 0.0 | 3.2 | 0.00 | 0.00 | 0.00 | 55 | 1013.4 |
| 20260503235205 | 11 | 298 | 1.6 | 3.2 | 0.00 | 0.00 | 0.00 | 50 | 1013.4 |
| 20260503234705 | 11 | 298 | 1.6 | 1.6 | 0.00 | 0.00 | 0.00 | 49 | 1013.3 |
| 20260503234205 | 12 | 298 | 0.0 | 3.2 | 0.00 | 0.00 | 0.00 | 51 | 1013.3 |
| 20260503233205 | 12 | 298 | 0.0 | 3.2 | 0.00 | 0.00 | 0.00 | 49 | 1013.1 |
| 20260503232704 | 13 | 298 | 0.0 | 4.8 | 0.00 | 0.00 | 0.00 | 49 | 1013.2 |
| 20260503232205 | 14 | 283 | 1.6 | 4.8 | 0.00 | 0.00 | 0.00 | 43 | 1013.1 |
| 20260503231205 | 14 | 257 | 1.6 | 9.7 | 0.00 | 0.00 | 0.00 | 38 | 1013.1 |
| 20260503230705 | 15 | 278 | 3.2 | 11.3 | 0.00 | 0.00 | 0.00 | 36 | 1013.1 |
| 20260503230205 | 15 | 256 | 3.2 | 11.3 | 0.00 | 0.00 | 0.00 | 37 | 1013.1 |
| 20260503225705 | 15 | 229 | 1.6 | 12.9 | 0.00 | 0.00 | 0.00 | 37 | 1013.1 |
| 20260503224705 | 15 | 226 | 3.2 | 11.3 | 0.00 | 0.00 | 0.00 | 37 | 1013.0 |
| 20260503223705 | 15 | 293 | 4.8 | 12.9 | 0.00 | 0.00 | 0.00 | 36 | 1013.0 |
| 20260503223205 | 15 | 258 | 6.4 | 20.9 | 0.00 | 0.00 | 0.00 | 34 | 1013.0 |
| 20260503222705 | 15 | 273 | 3.2 | 12.9 | 0.00 | 0.00 | 0.00 | 35 | 1013.1 |
| 20260503221705 | 15 | 252 | 6.4 | 19.3 | 0.00 | 0.00 | 0.00 | 34 | 1013.1 |
| 20260503221204 | 15 | 239 | 3.2 | 12.9 | 0.00 | 0.00 | 0.00 | 36 | 1013.1 |
| 20260503220704 | 16 | 256 | 6.4 | 12.9 | 0.00 | 0.00 | 0.00 | 33 | 1013.1 |
| 20260503220205 | 16 | 215 | 4.8 | 11.3 | 0.00 | 0.00 | 0.00 | 33 | 1013.1 |
| 20260503215705 | 16 | 273 | 8.0 | 19.3 | 0.00 | 0.00 | 0.00 | 34 | 1013.2 |
| 20260503215205 | 16 | 301 | 4.8 | 19.3 | 0.00 | 0.00 | 0.00 | 33 | 1013.1 |
| 20260503214705 | 16 | 272 | 9.7 | 19.3 | 0.00 | 0.00 | 0.00 | 32 | 1013.1 |
| 20260503214204 | 16 | 205 | 4.8 | 12.9 | 0.00 | 0.00 | 0.00 | 34 | 1013.0 |
| 20260503212705 | 16 | 297 | 3.2 | 9.7 | 0.00 | 0.00 | 0.00 | 35 | 1013.1 |
| 20260503211705 | 16 | 260 | 6.4 | 19.3 | 0.00 | 0.00 | 0.00 | 33 | 1013.0 |
| 20260503210705 | 16 | 270 | 1.6 | 20.9 | 0.00 | 0.00 | 0.00 | 35 | 1013.0 |
| 20260503210205 | 16 | 272 | 8.0 | 16.1 | 0.00 | 0.00 | 0.00 | 34 | 1013.0 |
| 20260503205205 | 16 | 329 | 3.2 | 24.1 | 0.00 | 0.00 | 0.00 | 36 | 1013.1 |
| 20260503204205 | 16 | 330 | 9.7 | 19.3 | 0.00 | 0.00 | 0.00 | 35 | 1013.1 |
| 20260503203704 | 16 | 259 | 9.7 | 22.5 | 0.00 | 0.00 | 0.00 | 33 | 1013.1 |
| 20260503202705 | 15 | 349 | 6.4 | 14.5 | 0.00 | 0.00 | 0.00 | 35 | 1013.2 |
| 20260503202204 | 16 | 328 | 9.7 | 20.9 | 0.00 | 0.00 | 0.00 | 33 | 1013.3 |
| 20260503201705 | 16 | 134 | 4.8 | 16.1 | 0.00 | 0.00 | 0.00 | 34 | 1013.3 |
| 20260503201205 | 16 | 297 | 4.8 | 16.1 | 0.00 | 0.00 | 0.00 | 34 | 1013.3 |
| 20260503200704 | 16 | 213 | 9.7 | 22.5 | 0.00 | 0.00 | 0.00 | 34 | 1013.3 |
| 20260503200205 | 16 | 241 | 8.0 | 19.3 | 0.00 | 0.00 | 0.00 | 36 | 1013.4 |
| 20260503195705 | 16 | 210 | 3.2 | 19.3 | 0.00 | 0.00 | 0.00 | 35 | 1013.4 |
| 20260503195204 | 15 | 267 | 4.8 | 19.3 | 0.00 | 0.00 | 0.00 | 38 | 1013.5 |
| 20260503194205 | 15 | 251 | 4.8 | 19.3 | 0.00 | 0.00 | 0.00 | 34 | 1013.7 |
| 20260503193705 | 15 | 259 | 3.2 | 20.9 | 0.00 | 0.00 | 0.00 | 35 | 1013.7 |
| 20260503193205 | 15 | 240 | 9.7 | 20.9 | 0.00 | 0.00 | 0.00 | 38 | 1013.7 |
| 20260503192705 | 16 | 296 | 4.8 | 14.5 | 0.00 | 0.00 | 0.00 | 32 | 1013.7 |
| 20260503192205 | 16 | 267 | 9.7 | 22.5 | 0.00 | 0.00 | 0.00 | 36 | 1013.8 |
| 20260503191704 | 15 | 256 | 3.2 | 12.9 | 0.00 | 0.00 | 0.00 | 34 | 1013.8 |
| 20260503190705 | 15 | 231 | 8.0 | 20.9 | 0.00 | 0.00 | 0.00 | 34 | 1014.0 |
| 20260503190205 | 15 | 263 | 9.7 | 19.3 | 0.00 | 0.00 | 0.00 | 35 | 1014.1 |
| 20260503185704 | 15 | 262 | 12.9 | 27.4 | 0.00 | 0.00 | 0.00 | 34 | 1014.2 |
| 20260503185204 | 16 | 242 | 3.2 | 12.9 | 0.00 | 0.00 | 0.00 | 39 | 1014.2 |
| 20260503184204 | 15 | 211 | 4.8 | 19.3 | 0.00 | 0.00 | 0.00 | 34 | 1014.3 |
| 20260503183704 | 15 | 1 | 6.4 | 16.1 | 0.00 | 0.00 | 0.00 | 35 | 1014.4 |
| 20260503183204 | 15 | 310 | 11.3 | 20.9 | 0.00 | 0.00 | 0.00 | 36 | 1014.4 |
| 20260503182704 | 16 | 320 | 4.8 | 19.3 | 0.00 | 0.00 | 0.00 | 37 | 1014.3 |
| 20260503181704 | 15 | 159 | 3.2 | 16.1 | 0.00 | 0.00 | 0.00 | 36 | 1014.1 |
| 20260503181204 | 15 | 250 | 8.0 | 22.5 | 0.00 | 0.00 | 0.00 | 36 | 1014.4 |
| 20260503180204 | 15 | 205 | 6.4 | 20.9 | 0.00 | 0.00 | 0.00 | 33 | 1014.4 |
| 20260503175704 | 15 | 136 | 3.2 | 14.5 | 0.00 | 0.00 | 0.00 | 35 | 1014.4 |
| 20260503175204 | 14 | 222 | 3.2 | 8.0 | 0.00 | 0.00 | 0.00 | 37 | 1014.6 |
| 20260503174204 | 15 | 264 | 8.0 | 19.3 | 0.00 | 0.00 | 0.00 | 38 | 1014.6 |
| 20260503173704 | 14 | 95 | 8.0 | 20.9 | 0.00 | 0.00 | 0.00 | 35 | 1014.5 |
| 20260503173204 | 14 | 288 | 8.0 | 27.4 | 0.00 | 0.00 | 0.00 | 38 | 1014.8 |
| 20260503172705 | 13 | 209 | 8.0 | 14.5 | 0.00 | 0.00 | 0.00 | 36 | 1014.5 |
| 20260503172204 | 13 | 58 | 3.2 | 19.3 | 0.00 | 0.00 | 0.00 | 38 | 1014.8 |
| 20260503171704 | 13 | 213 | 11.3 | 20.9 | 0.00 | 0.00 | 0.00 | 39 | 1014.9 |
| 20260503171204 | 13 | 219 | 9.7 | 19.3 | 0.00 | 0.00 | 0.00 | 36 | 1014.9 |
| 20260503150705 | 11 | 287 | 9.7 | 16.1 | 0.00 | 0.00 | 0.00 | 42 | 1016.1 |
| 20260503150205 | 11 | 283 | 9.7 | 16.1 | 0.00 | 0.00 | 0.00 | 43 | 1016.2 |
| 20260503131205 | 9 | 213 | 3.2 | 9.7 | 0.00 | 0.00 | 0.00 | 49 | 1016.5 |
| 20260503130704 | 8 | 254 | 9.7 | 20.9 | 0.00 | 0.00 | 0.00 | 48 | 1016.5 |
| 20260503130205 | 8 | 224 | 8.0 | 19.3 | 0.00 | 0.00 | 0.00 | 49 | 1016.4 |
| 20260503120205 | 6 | 228 | 4.8 | 8.0 | 0.00 | 0.00 | 0.00 | 58 | 1016.3 |
| 20260503110705 | 2 | 226 | 0.0 | 4.8 | 0.00 | 0.00 | 0.00 | 76 | 1015.9 |